RH
61 61 59 62 72 66 74 72 71 86 80 71 66 65 66 66 65 67 69 71 73 77 77 70 66 64 63 64 65 65 67 67 67 65 65 65 67 68 69 71 73 74 76 77
62 59 62 60 64 67 68 69 78 76 70 58 59 60 66 67 67 72 73 73 74 74 75 74 67 62 59 65 66 65 70 70 66 62 64 68 69 70 72 74 74 74 75 76
67 67 64 57 60 63 62 61 65 78 63 60 61 62 68 69 68 72 74 75 74 72 70 69 67 64 66 66 65 71 72 72 72 71 71 72 73 74 76 78 81 83 82 80
83 68 66 49 49 49 58 56 56 59 60 60 65 69 66 66 74 77 73 68 67 67 68 69 69 67 71 72 77 78 77 77 78 79 80 81 81 81 81 81 82 86 86 88
84 87 54 50 50 54 52 56 57 67 72 76 75 69 67 65 66 70 67 69 68 66 69 70 71 70 69 74 77 78 80 80 79 80 82 82 82 82 85 84 81 81 81 81
84 80 65 42 47 42 36 60 54 69 76 78 72 82 80 66 62 65 64 64 64 63 65 66 73 74 72 79 83 82 80 80 81 81 83 90 93 85 79 78 79 79 78 76
80 86 68 49 47 39 48 42 60 68 70 76 76 66 64 69 66 65 65 64 64 67 72 76 77 77 80 84 87 85 83 82 82 82 85 95 94 95 97 99 94 77 74 75
80 79 68 52 46 50 45 57 55 62 71 74 67 76 72 69 72 71 69 67 68 70 77 82 82 80 84 85 85 83 83 84 89 91 86 84 88 88 90 90 94 99 96 93
71 69 50 54 42 44 58 60 60 63 68 69 75 74 72 73 74 72 66 68 73 75 79 79 76 74 76 79 80 80 79 80 79 67 62 75 83 85 89 92 97 90 88 87
57 49 55 52 49 47 61 59 60 61 70 72 71 71 72 73 73 74 71 72 75 75 74 74 71 68 67 71 76 79 78 79 76 69 77 78 85 86 89 88 94 90 91 91
69 62 57 54 56 52 55 60 63 63 67 69 69 73 72 75 76 74 74 76 77 76 78 77 76 76 75 74 79 81 82 82 79 78 76 82 83 87 86 92 87 86 86 89
58 53 50 46 49 56 59 68 68 68 68 67 69 72 74 78 72 74 79 77 79 80 79 74 74 73 69 74 80 82 81 77 74 80 80 80 83 84 80 81 83 85 88 87
45 44 52 44 46 59 57 70 72 70 68 74 70 68 72 80 75 75 76 79 80 75 71 71 69 68 63 70 78 79 71 69 70 79 86 83 86 84 90 86 83 86 89 89
57 50 54 52 50 60 60 67 68 68 67 68 69 69 70 76 76 80 80 72 68 66 65 65 67 66 64 68 71 78 78 75 78 79 84 86 88 90 92 86 83 86 80 84
50 59 47 46 55 61 66 79 81 80 81 82 73 74 74 82 81 76 69 67 63 63 62 65 67 64 64 70 74 77 81 80 78 79 86 92 97 96 91 85 79 84 85 79
51 60 63 62 60 69 77 82 80 82 85 84 83 80 74 71 70 69 66 63 66 67 59 65 67 62 66 70 75 79 81 82 85 88 89 94 98 98 97 96 94 94 98 91
60 64 72 74 71 76 81 76 69 74 81 84 80 73 74 74 73 70 65 61 63 65 64 67 64 64 64 69 76 80 83 83 83 93 92 96 97 100 99 100 100 99 99 94
56 47 58 62 67 73 82 83 82 80 81 73 71 74 77 78 76 68 63 62 66 69 66 64 63 63 69 71 76 82 87 87 91 95 100 99 100 98 100 100 100 100 98 97
60 58 65 68 69 72 76 83 81 72 72 69 74 78 72 70 68 65 69 74 73 74 66 64 65 69 73 80 88 94 97 99 100 98 99 89 91 92 96 97 100 94 98 99
69 69 67 70 70 74 83 75 73 74 70 70 72 74 76 71 70 72 76 76 72 73 66 68 73 78 83 88 87 89 89 92 98 100 81 81 93 97 93 96 100 98 90 96
75 75 74 79 84 76 73 71 74 79 75 72 74 77 75 73 77 76 80 86 68 69 79 80 80 86 86 88 84 82 84 82 80 79 86 90 96 96 92 84 87 92 97 98
79 79 79 80 85 84 78 74 72 75 78 78 77 77 81 81 81 82 75 74 72 84 81 81 80 88 88 86 86 83 84 85 79 80 78 82 99 98 94 93 90 97 97 97
85 86 83 84 86 85 85 81 78 77 80 80 82 80 80 80 74 75 84 81 81 70 84 80 79 92 89 91 88 86 88 87 83 89 80 91 99 86 86 89 98 98 98 97
84 86 86 83 84 89 92 88 82 78 75 76 78 78 68 70 72 75 84 70 62 82 78 70 86 90 83 85 89 91 90 87 88 88 89 100 99 88 95 96 98 96 96 98
86 85 90 91 92 90 84 84 84 83 78 71 69 70 69 68 64 77 70 62 58 61 65 59 89 96 90 91 88 87 89 90 90 86 89 93 89 87 92 97 97 98 96 98
91 92 89 86 84 82 82 85 81 75 69 68 65 65 68 69 61 63 66 61 59 64 65 74 88 96 95 94 99 97 97 96 94 89 92 95 98 96 94 91 96 97 96 96
92 90 89 87 82 80 81 80 72 74 63 54 61 68 69 64 64 62 62 58 61 68 78 80 86 89 90 90 94 95 95 92 97 93 91 89 96 98 95 92 96 98 98 98
Wind_Speed
3 3 1 3 7 12 8 6 3 9 5 6 6 6 5 5 6 7 7 7 7 7 6 14 19 19 19 19 19 18 19 19 18 16 14 13 13 11 9 9 8 8 11 13
5 7 7 4 10 9 8 9 8 5 4 4 4 5 5 6 7 7 6 7 7 7 9 13 15 17 17 17 16 14 16 18 17 17 16 17 17 16 14 14 14 14 14 14
3 6 7 5 5 4 2 4 5 5 5 5 4 6 6 6 6 6 5 6 6 5 7 10 11 12 12 12 11 12 14 15 16 17 17 19 20 19 20 20 19 16 15 15
2 4 3 5 2 2 2 2 2 5 6 6 6 3 4 3 6 7 6 6 4 4 5 7 9 12 10 10 11 11 12 13 14 15 15 14 14 16 17 18 20 20 21 19
2 1 4 3 4 4 4 4 4 8 7 6 5 4 2 2 3 6 6 6 5 4 6 8 9 9 11 11 12 14 15 14 15 14 14 15 18 18 18 20 23 22 23 23
1 3 6 5 3 4 3 4 9 6 9 10 6 4 4 6 4 5 5 4 5 5 6 8 6 6 11 11 9 8 8 10 12 13 16 16 18 19 17 17 20 21 24 24
2 2 6 5 5 3 5 6 6 9 9 7 5 4 3 8 5 9 8 5 4 4 7 6 6 5 9 8 10 11 13 15 17 20 19 16 17 17 18 19 20 19 20 21
1 1 7 6 4 7 5 0 5 6 7 8 5 5 6 7 7 8 9 7 5 4 5 5 7 7 7 10 11 13 17 16 17 21 20 18 18 18 19 18 18 18 19 19
7 5 4 6 4 5 4 5 5 6 6 8 8 7 8 6 7 7 8 6 4 3 3 6 9 13 14 14 16 18 20 22 25 27 25 24 24 24 21 18 15 16 19 19
2 3 7 8 5 4 6 6 6 5 7 8 8 7 7 6 5 5 6 3 1 4 5 7 8 11 13 15 15 14 13 14 16 17 17 17 16 15 16 16 18 18 17 19
6 8 6 8 8 8 6 6 6 5 7 9 8 7 7 6 6 8 8 6 6 6 5 7 7 9 10 11 10 11 13 14 14 14 15 15 14 15 16 17 17 20 20 22
6 8 5 6 8 9 9 9 9 9 6 6 9 10 7 7 13 14 14 13 11 10 10 10 10 10 9 8 10 13 14 15 16 15 14 14 14 16 17 17 18 19 19 20
10 5 8 6 3 8 12 9 9 10 7 9 9 12 11 7 15 14 14 13 13 12 11 9 9 9 8 8 10 11 14 15 16 15 15 15 15 16 20 24 18 17 19 20
8 4 6 4 6 8 8 8 14 9 11 13 14 14 14 11 12 14 14 13 10 9 10 10 10 12 10 10 10 12 13 13 15 16 15 15 15 17 17 17 20 23 23 22
11 11 10 4 5 5 5 7 7 8 7 6 14 14 15 10 12 15 11 9 7 9 11 12 13 15 12 13 13 13 13 13 14 13 13 15 15 17 19 18 18 21 22 23
6 6 7 8 10 8 8 8 8 9 7 6 11 16 19 16 13 11 10 9 10 12 11 12 13 14 13 13 14 14 14 12 12 12 14 15 17 18 17 17 18 18 18 20
6 7 6 7 8 8 10 10 13 11 8 9 15 18 16 14 11 10 10 10 11 11 11 12 16 15 14 12 13 15 15 14 13 13 15 15 16 18 18 17 16 16 18 21
15 16 11 9 9 9 8 8 9 11 9 18 17 16 14 14 11 12 10 8 9 10 11 12 12 11 10 11 12 13 13 15 14 13 14 16 16 16 17 17 16 17 19 21
11 15 10 10 9 8 8 9 13 19 16 18 18 16 17 15 11 9 7 7 9 11 13 9 9 10 11 10 10 11 12 13 12 11 12 15 17 15 17 19 17 18 20 19
6 7 10 8 13 12 7 13 18 17 17 19 17 14 12 11 10 9 7 9 10 11 10 10 9 11 11 9 9 10 11 12 13 13 15 16 16 17 17 15 16 17 20 20
6 6 7 7 7 14 17 18 20 16 18 17 18 14 13 10 8 7 7 5 5 6 6 7 9 12 14 11 11 13 14 15 17 16 17 16 16 14 15 16 17 16 17 21
4 3 5 6 7 8 14 19 21 20 18 15 11 9 9 7 6 5 6 7 6 6 10 11 12 12 12 13 15 14 15 17 17 16 17 16 15 13 14 15 17 19 19 19
7 3 5 6 6 8 14 17 18 20 18 15 13 11 9 6 4 3 1 2 7 11 11 12 12 11 12 14 14 15 15 16 16 16 17 17 14 13 14 16 18 18 19 18
3 6 6 8 12 11 5 10 15 15 14 12 10 9 9 7 4 3 3 5 7 7 9 10 11 12 12 12 12 13 14 14 15 16 16 15 13 15 15 16 18 18 17 15
7 8 9 11 7 6 12 14 13 13 13 11 10 8 7 5 4 4 4 6 8 9 11 11 10 10 10 10 13 15 16 16 15 15 17 16 15 15 15 17 17 16 15 14
8 9 13 13 9 14 16 17 11 14 14 13 11 9 7 4 2 1 2 4 7 7 8 9 9 10 11 11 12 13 15 17 17 17 16 17 16 15 15 16 16 15 14 13
11 10 9 7 8 13 16 17 13 12 13 14 12 10 7 5 3 1 3 6 6 6 7 8 9 10 11 12 14 14 14 14 14 16 16 16 15 14 14 15 14 13 13 14
Wind_Direction
296 347 334 319 347 32 70 150 113 176 155 177 160 137 125 115 93 84 72 61 63 61 50 59 58 56 53 54 49 51 59 54 45 40 33 28 21 13 3 347 338 326 315 307
348 345 19 28 18 25 44 57 71 107 76 162 146 117 117 114 105 92 87 77 66 60 52 50 51 49 45 42 43 44 46 34 23 21 16 14 10 6 356 352 347 339 328 315
316 348 346 12 347 3 3 55 141 143 201 144 150 148 148 135 133 124 101 89 74 66 78 74 57 50 45 43 46 54 39 28 20 14 9 7 0 358 357 354 343 333 325 323
240 4 22 247 276 275 115 3 282 104 131 162 154 117 111 157 150 143 141 122 117 113 109 75 54 51 59 57 61 55 45 35 24 20 16 6 359 358 353 351 345 339 335 332
124 183 285 279 223 182 178 250 202 148 140 134 136 83 6 199 168 156 148 154 155 112 83 53 43 49 51 46 49 40 29 16 15 17 13 6 358 354 350 349 344 341 335 327
122 143 212 242 210 156 102 282 194 170 168 162 156 155 240 184 137 116 132 151 88 65 61 36 20 28 52 44 40 18 15 22 11 2 2 357 351 337 328 328 326 327 330 330
195 238 284 233 165 130 128 242 160 165 169 167 193 199 202 144 154 172 178 154 102 78 71 41 41 43 55 43 28 8 359 1 354 358 3 351 344 343 342 339 326 318 314 312
143 206 270 151 89 166 217 20 158 171 176 180 181 135 142 153 166 176 165 152 152 119 80 52 25 13 12 4 353 349 355 360 0 357 356 352 348 343 339 333 327 322 320 317
187 221 259 222 197 220 177 165 198 168 177 170 156 173 166 177 183 185 172 165 147 89 36 353 350 352 347 342 344 348 353 353 349 347 350 345 340 335 332 329 324 323 321 318
8 273 221 231 245 220 191 199 182 176 166 166 169 171 181 178 183 180 172 176 37 356 340 330 332 332 329 329 327 331 329 321 316 325 321 321 319 319 317 320 324 320 317 315
263 275 300 251 224 208 209 193 168 158 170 181 160 184 177 183 185 191 192 192 209 226 244 263 277 276 286 288 284 283 287 285 289 301 313 317 316 312 312 313 316 315 315 314
239 225 202 245 224 189 188 193 189 167 167 188 176 182 174 187 194 191 189 193 201 220 233 247 249 267 283 280 273 282 281 278 280 288 300 303 306 308 310 312 314 314 313 315
251 222 222 262 299 198 195 197 187 185 175 177 192 176 177 173 196 194 194 204 217 224 238 250 268 284 300 299 288 280 278 281 283 287 292 303 303 306 308 319 317 317 319 319
236 200 258 208 239 203 195 191 187 185 187 184 181 185 180 181 186 197 206 218 225 238 256 267 277 281 290 287 282 280 277 283 286 292 292 298 295 297 301 305 312 313 321 321
248 215 245 232 191 210 168 142 168 189 184 180 189 181 183 180 194 209 216 219 228 245 260 267 271 279 289 279 275 280 280 282 289 289 294 297 292 295 297 295 295 292 301 316
297 250 221 217 208 196 180 181 184 196 181 176 178 188 198 202 205 208 211 213 221 242 266 274 279 293 297 287 276 276 277 280 284 282 292 296 298 300 298 295 293 295 295 304
236 247 225 240 215 196 202 197 200 195 179 176 193 196 192 193 197 207 219 231 245 259 274 283 291 299 296 285 275 274 279 285 293 288 294 309 310 305 304 302 293 297 300 309
240 248 206 204 203 199 195 193 182 175 186 200 198 193 190 188 201 212 224 234 255 268 277 293 296 298 297 295 289 283 279 287 290 289 297 308 308 307 307 301 301 299 307 312
251 236 208 192 192 197 199 189 185 197 196 192 185 190 199 205 211 220 222 232 261 282 302 308 301 299 301 299 290 288 290 291 287 283 289 307 308 308 310 308 300 306 317 313
272 228 198 188 186 185 185 196 192 188 189 184 185 180 186 202 210 222 233 239 264 286 301 306 302 305 313 302 308 297 297 296 288 278 298 301 299 298 309 309 309 311 317 315
276 232 206 186 184 194 201 189 177 173 180 182 180 186 197 200 208 227 257 281 310 319 317 317 312 306 315 305 297 291 287 287 290 292 293 298 302 304 306 314 313 308 309 315
291 219 222 195 176 168 184 178 178 171 168 170 176 177 183 199 213 237 264 274 299 306 312 309 305 297 299 300 297 292 288 289 288 286 290 293 286 298 305 309 311 312 314 311
294 256 192 186 180 167 155 159 162 166 166 171 175 179 188 200 212 189 239 235 301 312 310 310 315 313 308 302 294 291 290 289 285 288 288 292 278 298 301 307 312 315 314 309
264 265 214 173 157 147 142 160 158 161 163 163 166 173 177 168 165 201 187 295 307 316 312 319 320 314 307 303 299 294 296 292 290 293 289 286 277 293 287 297 307 317 313 309
248 235 205 167 164 179 167 164 153 150 149 148 147 148 152 156 167 196 291 311 313 319 320 326 327 329 321 306 299 296 294 291 289 290 291 290 285 285 286 292 302 310 309 304
199 210 211 202 191 182 174 173 168 171 161 149 150 155 153 163 180 207 292 313 319 324 331 336 336 328 329 331 323 312 307 302 297 288 286 290 291 286 288 294 299 300 300 290
235 190 182 183 190 181 183 185 170 171 182 177 164 167 167 179 177 260 326 329 329 333 338 339 337 335 332 330 315 313 318 307 299 293 286 286 292 295 295 299 300 297 294 287